sat.trackr.live / text

‹ back to catalog

STARLINK-37615

NORAD 69030 · 2026-101F

PAYLOAD ACTIVE UNKNOWN

§ Identity

Operator
Country
US
Launch date
2026-05-06
Launch site
AFWTR
Launch vehicle
Mass (kg)
RCS (m²)

Purposes: comms

External: N2YO · Heavens-Above · Gunter

§ Orbital elements

Epoch: 2026-05-25T03:31:35.048352Z

Period
91.42 min
Inclination
97.2845°
Eccentricity
0.0001263
Mean motion
15.75209119 rev/d
Perigee alt
343.2 km
Apogee alt
344.9 km
Semi-major
6,722.2 km
B*
9.0110e-4
RAAN
359.8995°
Arg perigee
79.1377°
Mean anomaly
281.0031°
Rev number
301

§ Raw data

STARLINK-376151 69030U 26101F   26145.14693343  .00136558  00000+0  90110-3 0  99902 69030  97.2845 359.8995 0001263  79.1377 281.0031 15.75209119  3018

JSON: /api/v1/satellites/69030 · /tle

For live sub-satellite position, see the globe view (requires WebGL).

§ Visibility from observer

Set your observer location to see the next 7 days of passes ≥ 10°. The values pass through the URL so the page stays shareable.

No JS? Fill the form by hand. The geolocation button needs JavaScript.